Location: Erp
(42.9417°N, 1.2009°E)
Time: 10:06:21
(UTC+00:00)

USA 238 - Pass Details

Date: 12 January 2026
Orbit: 883 x 1328 km, 63.4° (Epoch: 10 January)

Event Time Altitude Azimuth Distance (km) Brightness Sun altitude
Rises 18:38:32 0° 324° (NW) 3,982 7.0 -20.7°
Reaches altitude 10° 18:41:08 10° 325° (NW) 3,079 6.4 -21.2°
Maximum altitude 18:48:39 82° 53° (NE) 1,264 3.9 -22.5°
Enters shadow 18:56:26 12° 142° (SE) 3,196 5.9 -23.9°
